sat.trackr.live / text

‹ back to catalog

STARLINK-33827

NORAD 63798 · 2025-091Z

PAYLOAD ACTIVE UNKNOWN

§ Identity

Operator
Country
US
Launch date
2025-05-02
Launch site
AFETR
Launch vehicle
Mass (kg)
RCS (m²)

Purposes: comms

External: N2YO · Heavens-Above · Gunter

§ Orbital elements

Epoch: 2026-05-24T21:02:50.247744Z

Period
94.27 min
Inclination
43.0025°
Eccentricity
0.0001530
Mean motion
15.27598705 rev/d
Perigee alt
481.9 km
Apogee alt
484.0 km
Semi-major
6,861.1 km
B*
6.3229e-4
RAAN
342.2932°
Arg perigee
260.9111°
Mean anomaly
99.1567°
Rev number
6,055

§ Raw data

STARLINK-338271 63798U 25091Z   26144.87697046  .00017188  00000+0  63229-3 0  99932 63798  43.0025 342.2932 0001530 260.9111  99.1567 15.27598705 60555

JSON: /api/v1/satellites/63798 · /tle

For live sub-satellite position, see the globe view (requires WebGL).

§ Visibility from observer

Set your observer location to see the next 7 days of passes ≥ 10°. The values pass through the URL so the page stays shareable.

No JS? Fill the form by hand. The geolocation button needs JavaScript.